Home   Weather   Temple   Past weeks

Flag for USA Past Weather in Temple, Texas, USA — Yesterday and Last 2 Weeks

Now
62 °F

Overcast.


Feels Like: 62 °F
Forecast: 51 / 71 °F
Wind: 21 mph from Northwest

Location: Fort Hood AAF Airport

Current Time: Apr 29, 2017 at 10:34:31 pm

Latest Report: Apr 29, 2017 at 9:58 pm


Visibility: 10 mi

Pressure: 29.75 "Hg

Humidity: 54%

Dew Point: 45 °F

Location of TempleLocation

Past Weather in Temple — Graph

°F

Temple Temperature Yesterday

Maximum temperature yesterday: 89 °F (at 5:58 pm)
Minimum temperature yesterday: 66 °F (at 1:58 am)
Average temperature yesterday: 78 °F

High & Low Weather Summary for the Past Weeks

 TemperatureHumidityPressure
High90 °F (Apr 29, 3:44 pm)100% (Apr 15, 6:18 am)30.15 "Hg (Apr 15, 6:18 am)
Low46 °F (Apr 23, 5:58 am)28% (Apr 26, 12:58 pm)29.37 "Hg (Apr 26, 3:58 am)
Average70 °F74%29.83 "Hg
* Reported Apr 14 8:58 pm — Apr 29 8:58 pm, Temple, Weather by CustomWeather, © 2017

Note: Actual official high and low records may vary slightly from our data, if they occured in-between our weather recording intervals... More about our weather records

Advertising

Temple Weather History for the Previous 24 Hours

Scroll right to see more
 ConditionsComfort  
Time TempWeatherWind HumidityBarometerVisibility
8:58 pm
Sat, Apr 29
61 °FOvercast.17 mph61%29.70 "Hg10 mi
7:58 pm63 °FOvercast.20 mph65%29.63 "Hg10 mi
6:58 pm64 °FPartly sunny.23 mph66%29.57 "Hg10 mi
5:58 pm72 °FScattered clouds.28 mph59%29.53 "Hg10 mi
4:58 pm77 °FBroken clouds.24 mph58%29.49 "Hg10 mi
3:58 pm88 °FBroken clouds.14 mph54%29.47 "Hg10 mi
3:44 pm90 °FScattered clouds.14 mph52%29.47 "Hg10 mi
2:58 pm89 °FScattered clouds.18 mph54%29.48 "Hg10 mi
1:58 pm85 °FMostly cloudy.18 mph58%29.50 "Hg10 mi
12:58 pm85 °FPartly sunny.14 mph59%29.51 "Hg10 mi
11:58 am84 °FSunny.23 mph62%29.50 "Hg10 mi
11:03 am82 °FPartly sunny.24 mph66%29.51 "Hg10 mi
10:58 am83 °FPartly sunny.22 mph64%29.51 "Hg10 mi
10:23 am79 °FPartly sunny.16 mph74%29.52 "Hg10 mi
9:58 am79 °FBroken clouds.18 mph74%29.52 "Hg10 mi
9:28 am77 °FCloudy.23 mph79%29.54 "Hg10 mi
9:18 am77 °FMostly cloudy.20 mph79%29.54 "Hg10 mi
9:03 am77 °FBroken clouds.23 mph79%29.54 "Hg10 mi
7:58 am75 °FMostly cloudy.17 mph83%29.53 "Hg8 mi
7:33 am75 °FMostly cloudy.20 mph83%29.52 "Hg6 mi
7:08 am73 °FFog.18 mph94%29.52 "Hg5 mi
6:43 am73 °FFog.18 mph89%29.51 "Hg6 mi
5:58 am74 °FFog.17 mph89%29.52 "Hg6 mi
4:58 am74 °FOvercast.15 mph89%29.53 "Hg7 mi
3:58 am74 °FOvercast.14 mph88%29.53 "Hg8 mi
2:58 am74 °FOvercast.16 mph89%29.53 "Hg9 mi
1:58 am74 °FOvercast.16 mph88%29.55 "Hg8 mi
1:38 am75 °FOvercast.15 mph83%29.55 "Hg8 mi
12:58 am75 °FOvercast.20 mph85%29.55 "Hg8 mi
11:58 pm
Fri, Apr 28
76 °FOvercast.20 mph82%29.55 "Hg8 mi
11:08 pm77 °FPassing clouds.18 mph79%29.55 "Hg9 mi
10:58 pm77 °FPassing clouds.18 mph78%29.55 "Hg10 mi
Weather by CustomWeather, © 2017

See weather overviewHow to use our weather pages